Watertown, NY

5:41 PM EST on November 19, 2019 (GMT -0500)
Watertown International

Weather History for KART - September, 2019

Change the Weather History Date:

Friday, September 6, 2019

  Actual Average Record
Temperature  
Mean Temperature 60 °F 63 °F  
Max Temperature 76 °F 74 °F 92 °F (1971)
Min Temperature 44 °F 52 °F 32 °F (2000)
Degree Days  
Heating Degree Days 5 4  
Month to date heating degree days 19 20  
Since 1 July heating degree days 48 92  
Cooling Degree Days 0 2  
Month to date cooling degree days 4 12  
Year to date cooling degree days 325 336  
Growing Degree Days 10 (Base 50)    
Moisture  
Dew Point 53 °F    
Average Humidity 75    
Maximum Humidity 100    
Minimum Humidity 49    
Precipitation  
Precipitation 0.39 in 0.11 in 0.97 in (1979)
Month to date precipitation 1.87 0.65  
Year to date precipitation 29.96 22.45  
Sea Level Pressure  
Sea Level Pressure 29.94 in    
Wind  
Wind Speed 4 mph (NNW)    
Max Wind Speed 15 mph    
Max Gust Speed 20 mph    
Visibility 6 miles    
Events Fog , Rain    
T = Trace of Precipitation, MM = Missing Value Source: NWS Daily Summary

Daily Weather History Graph

Daily Weather History Graph

Search for Another Location

Airport or City:

Astronomy

Sep. 06, 2019 Rise Set
Actual Time 6:32 AM EDT 7:31 PM EDT
Civil Twilight 6:03 AM EDT 8:00 PM EDT
Nautical Twilight 5:28 AM EDT 8:35 PM EDT
Astronomical Twilight 4:51 AM EDT 9:12 PM EDT
Moon 2:54 PM EDT (9/6) No Moon Set
Length of Visible Light 13h 57m
Length of Day
12h 58m
First Quarter, 55% of the Moon is Illuminated
Sep 6
First Quarter
Sep 14
Full
Sep 21
Last Quarter
Sep 28
New
Oct 5
First Quarter

Hourly Weather History & Observations

Time (EDT) Temp. Windchill Dew Point Humidity Pressure Visibility Wind Dir Wind Speed Gust Speed Precip Events Conditions
12:56 AM 50.0 °F - 48.0 °F 93% 30.05 in 10.0 mi East 3.5 mph - N/A   Clear
1:56 AM 48.0 °F - 46.9 °F 96% 30.05 in 10.0 mi Calm Calm - N/A   Clear
2:56 AM 50.0 °F - 48.0 °F 93% 30.04 in 10.0 mi NE 3.5 mph - N/A   Clear
3:56 AM 50.0 °F - 48.0 °F 93% 30.02 in 10.0 mi East 3.5 mph - N/A   Clear
4:56 AM 48.9 °F - 48.0 °F 97% 30.01 in 10.0 mi Calm Calm - N/A   Clear
5:56 AM 46.0 °F - 44.1 °F 93% 30.02 in 3.0 mi Calm Calm - N/A   Clear
5:58 AM 46.0 °F - 44.1 °F 93% 30.02 in 1.8 mi Calm Calm - N/A   Clear
6:17 AM 45.0 °F - 44.1 °F 97% 30.03 in 0.2 mi Calm Calm - N/A Fog Fog
6:34 AM 44.1 °F - 44.1 °F 100% 30.03 in 0.8 mi Calm Calm - N/A   Clear
6:41 AM 45.0 °F - 44.1 °F 97% 30.03 in 2.0 mi Calm Calm - N/A   Clear
6:49 AM 44.1 °F - 44.1 °F 100% 30.03 in 1.0 mi Calm Calm - N/A   Clear
6:56 AM 45.0 °F - 44.1 °F 97% 30.03 in 1.2 mi Calm Calm - N/A   Clear
7:09 AM 45.0 °F 42.6 °F 44.1 °F 97% 30.02 in 3.0 mi East 4.6 mph - N/A   Clear
7:56 AM 51.1 °F - 50.0 °F 96% 30.02 in 10.0 mi Calm Calm - N/A   Clear
8:56 AM 60.1 °F - 52.0 °F 75% 30.00 in 10.0 mi Calm Calm - N/A   Clear
9:56 AM 64.9 °F - 54.0 °F 68% 29.99 in 10.0 mi Calm Calm - N/A   Clear
10:56 AM 68.0 °F - 57.0 °F 68% 29.97 in 10.0 mi North 6.9 mph - N/A   Clear
11:56 AM 71.1 °F - 55.9 °F 59% 29.94 in 10.0 mi North 5.8 mph - N/A   Clear
12:56 PM 72.0 °F - 54.0 °F 53% 29.91 in 10.0 mi Variable 4.6 mph - N/A   Clear
1:56 PM 72.0 °F - 54.0 °F 53% 29.91 in 10.0 mi NW 6.9 mph - N/A   Mostly Cloudy
2:56 PM 75.0 °F - 55.9 °F 51% 29.88 in 10.0 mi West 8.1 mph - N/A   Partly Cloudy
3:56 PM 73.9 °F - 54.0 °F 50% 29.85 in 10.0 mi WNW 4.6 mph - N/A   Clear
4:56 PM 73.0 °F - 55.0 °F 53% 29.83 in 10.0 mi North 11.5 mph - N/A   Scattered Clouds
5:56 PM 70.0 °F - 55.9 °F 61% 29.85 in 10.0 mi NNW 6.9 mph - N/A   Overcast
6:56 PM 68.0 °F - 55.0 °F 63% 29.85 in 10.0 mi North 6.9 mph - N/A   Overcast
7:56 PM 64.0 °F - 57.9 °F 80% 29.86 in 2.5 mi West 5.8 mph - 0.03 in Rain Rain
8:06 PM 64.0 °F - 57.0 °F 78% 29.87 in 3.0 mi North 4.6 mph - 0.02 in Rain Rain
8:56 PM 61.0 °F - 57.9 °F 90% 29.87 in 2.0 mi NW 4.6 mph - 0.10 in Rain Rain
9:03 PM 61.0 °F - 59.0 °F 93% 29.88 in 1.0 mi Calm Calm - 0.04 in Rain Heavy Rain
9:10 PM 61.0 °F - 59.0 °F 93% 29.88 in 0.8 mi NNW 5.8 mph - 0.14 in Rain Heavy Rain
9:16 PM 60.1 °F - 57.9 °F 93% 29.87 in 1.0 mi NW 8.1 mph - 0.18 in Rain Heavy Rain
9:29 PM 61.0 °F - 59.0 °F 93% 29.87 in 2.5 mi NW 8.1 mph - 0.22 in Rain Rain
9:36 PM 61.0 °F - 59.0 °F 93% 29.87 in 3.0 mi NW 4.6 mph - 0.24 in Rain Rain
9:56 PM 61.0 °F - 59.0 °F 93% 29.86 in 10.0 mi NNE 4.6 mph - 0.25 in Rain Light Rain
10:49 PM 60.1 °F - 57.9 °F 93% 29.87 in 8.0 mi SSW 3.5 mph - 0.01 in   Overcast
10:56 PM 60.1 °F - 57.9 °F 93% 29.86 in 6.0 mi Calm Calm - 0.01 in   Overcast
11:25 PM 60.1 °F - 59.0 °F 96% 29.86 in 9.0 mi Calm Calm - N/A   Overcast
11:56 PM 60.1 °F - 57.9 °F 93% 29.85 in 8.0 mi Calm Calm - 0.00 in Rain Light Rain